Terminal Aerodrome Forecast
Issued by NWS

Home | Current Version | Previous Version | Text Only | Print | Product List | Glossary On
Versions: 1 2 3 4 5 6 7 8 9 10 11 12
000
FTUS45 KRIW 172300
TAFJAC
TAF
KJAC 172326Z 1800/1824 21010KT P6SM VCSH SCT050 BKN120
     FM180230 VRB06KT P6SM SCT100 BKN140
     FM180500 36006KT P6SM SCT110
      AMD LTD TO CLD VIS AND WIND=

USA.gov is the U.S. government's official web portal to all federal, state and local government web resources and services.